Flag for U.S.A. Weather past 2 weeks in Angels Camp, California, U.S.A.

Now
97 °F

Sunny.


Feels Like: 93 °F
Forecast: 63 / 102 °F
Wind: 13 mph from Northwest

Location: Modesto City-County-Sham Field

Current Time: Aug 1, 2014 at 9:12:56 PM

Latest Report: Aug 1, 2014 at 7:53 PM


Visibility: 10 mi

Pressure: 29.77 "Hg

Humidity: 16%

Dew point: 44 °F

Location of Angels CampLocation

Historic Weather in Angels Camp — Graph

°F

Angels Camp temperature yesterday

Maximum temperature yesterday: 102 °F (at 4:53 PM)
Minimum temperature yesterday: 73 °F (at 6:53 AM)
Average temperature yesterday: 87 °F

Past Weeks' High & Low Weather Summary

 TemperatureHumidityPressure
High106 °F (Aug 1, 4:53 PM)84% (Jul 23, 3:53 AM)30.12 "Hg (Jul 23, 3:53 AM)
Low62 °F (Jul 18, 3:53 AM)6% (Aug 1, 4:53 PM)29.76 "Hg (Aug 1, 5:53 PM)
Average81 °F41%29.90 "Hg
* Reported Jul 17 7:53 PM — Aug 1 7:53 PM, Angels Camp, Weather by CustomWeather, © 2014

Note: Actual official high and low records may vary slightly from our data, if they occured in-between our weather recording intervals... More about our weather records

Advertising

Angels Camp weather history for previous 24 hours

 ConditionsComfort  
Time TempWeatherWind HumidityBarometerVisibility
7:53 PM
Aug 1
97 °FSunny.13 mph16%29.77 "Hg10 mi
6:53 PM102 °FSunny.13 mph12%29.76 "Hg10 mi
5:53 PM103 °FSunny.17 mph9%29.76 "Hg10 mi
4:53 PM106 °FSunny.14 mph6%29.77 "Hg10 mi
3:53 PM105 °FSunny.14 mph11%29.78 "Hg10 mi
2:53 PM104 °FSunny.14 mph13%29.80 "Hg10 mi
1:53 PM100 °FSunny.7 mph16%29.82 "Hg10 mi
12:53 PM97 °FSunny.8 mph19%29.83 "Hg10 mi
11:53 AM95 °FSunny.6 mph18%29.84 "Hg10 mi
10:53 AM90 °FSunny.8 mph22%29.85 "Hg10 mi
9:53 AM86 °FSunny.5 mph28%29.85 "Hg10 mi
8:53 AM80 °FSunny.5 mph36%29.85 "Hg10 mi
7:53 AM76 °FSunny.6 mph42%29.84 "Hg10 mi
6:53 AM71 °FClear.5 mph49%29.83 "Hg10 mi
5:53 AM70 °FClear.5 mph47%29.81 "Hg10 mi
4:53 AM73 °FClear.3 mph41%29.81 "Hg10 mi
3:53 AM74 °FClear.5 mph40%29.81 "Hg10 mi
2:53 AM71 °FClear.No wind57%29.82 "Hg10 mi
1:53 AM77 °FClear.No wind32%29.82 "Hg10 mi
12:53 AM77 °FClear.No wind39%29.83 "Hg10 mi
11:53 PM
Jul 31
81 °FClear.3 mph29%29.82 "Hg10 mi
10:53 PM84 °FClear.6 mph25%29.82 "Hg10 mi
9:53 PM87 °FClear.6 mph27%29.82 "Hg10 mi
Weather by CustomWeather, © 2014

See weather overviewHow to use our weather pages